User: anonymous   Login
Location: Campo Alegre
(10.1673°N, 67.4431°W)
Time: 12:00:44
(UTC+00:00)
Language:

SJ-6F - Orbit

View from above orbital plane
View from above orbital plane
View from above satellite
View from above satellite

Ground track
Ground track

The orbit data is extracted from the following two-line orbital elements,

1 33409U 08053B   24176.20809594  .00002368  00000-0  19958-3 0  9996
2 33409  97.8833 174.1880 0012212 296.7290  63.2682 14.99130181854215
Epoch (UTC): 24 June 2024 04:59:39
Eccentricity: 0.0012212
inclination: 97.8833°
perigee height: 561 km
apogee height: 578 km
right ascension of ascending node: 174.1880°
argument of perigee: 296.7290°
revolutions per day: 14.99130181
mean anomaly at epoch: 63.2682°
orbit number at epoch: 85421

The dashed part of the orbit path shows where the satellite is in the earth's shadow,  

DLR